Location: ?????????
(38.5999°N, 22.7695°E)
Time: 11:19:46
(UTC+00:00)

Cosmos 1825 - Pass Details

Date: 23 May 2024
Orbit: 439 x 443 km, 82.5° (Epoch: 18 June)

Event Time Altitude Azimuth Distance (km) Brightness Sun altitude
Exits shadow 01:01:43 14° 132° (SE) 1,358 4.3 -20.4°
Maximum altitude 01:03:40 21° 90° (E) 1,055 4.2 -20.1°
Drops below altitude 10° 01:06:19 10° 39° (NE) 1,571 5.9 -19.8°
Sets 01:08:42 0° 23° (NNE) 2,449 7.0 -19.5°
